Regional Weather Roundup
Issued by NWS

Home | Current Version | Previous Version | Text Only | Print | Product List | Glossary On
Versions: 1 2 3 4 5 6 7 8 9 10 11 12 13 14 15 16 17 18 19 20 21 22 23 24 25 26 27 28 29 30 31 32 33 34 35 36 37 38 39 40 41 42 43 44 45 46 47 48 49 50
000
ASUS43 KTOP 260159
RWRKS

WEATHER ROUNDUP FOR KANSAS
NATIONAL WEATHER SERVICE GOODLAND KS
800 PM CST TUE NOV 25 2014

NOTE:  "FAIR" INDICATES FEW OR NO CLOUDS BELOW 12,000 FEET WITH NO
SIGNIFICANT WEATHER AND/OR OBSTRUCTIONS TO VISIBILITY.

KSZ001>006-013>018-027>032-041>047-260300-
NORTHWEST KANSAS

CITY           SKY/WX    TMP DP  RH WIND       PRES   REMARKS
GOODLAND       CLOUDY    44  29  55 N18G26    29.92R
HAYS           CLOUDY    45  16  31 S10       29.90R
HILL CITY      CLOUDY    43  13  29 W3        29.89R
RUSSELL        CLOUDY    45  20  36 S15G24    29.89S
$$

KSZ061>065-074>080-084>089-260300-
SOUTHWEST KANSAS

CITY           SKY/WX    TMP DP  RH WIND       PRES   REMARKS
DODGE CITY     MOCLDY    40  15  36 S8        29.93S
ELKHART          N/A     38  12  34 W3          N/A
GARDEN CITY    MOCLDY    36  16  44 S6        29.91S
GREAT BEND     CLOUDY    45  19  36 S16       29.93S
LIBERAL        PTCLDY    34  12  40 SW8       29.94S
$$

KSZ066>073-081>083-090>101-260300-
SOUTHEAST KANSAS

CITY           SKY/WX    TMP DP  RH WIND       PRES   REMARKS
CHANUTE        CLOUDY    38  23  55 S8        30.08F
COFFEYVILLE    CLOUDY    39  23  52 S6        30.10F
HUTCHINSON     CLOUDY    44  27  51 S17       29.97F
MEDICINE LODGE   N/A     44  26  49 SE12      29.97F
NEWTON         CLOUDY    43  25  49 S16       30.01S
PARSONS        CLOUDY    40  22  48 S6        30.10F
WICHITA INTL   CLOUDY    44  26  49 S16       30.01F
WICHITA JABRA  CLOUDY    42  27  55 S13       30.01F
WICHITA MCCONL CLOUDY    44  24  46 SE13      30.02F
WINFIELD       CLOUDY    42  28  57 SE6       30.06S
$$

KSZ007>012-019>026-033>040-048>060-102>105-260300-
NORTHEAST KANSAS

CITY           SKY/WX    TMP DP  RH WIND       PRES   REMARKS
CONCORDIA      CLOUDY    44  25  47 S16       29.89F
EMPORIA        CLOUDY    40  24  53 S9        30.03S
LAWRENCE       MOCLDY    36  22  56 SE8       30.05F
MANHATTAN      CLOUDY    45  24  43 S9        29.98F
OLATHE IND     MOCLDY    35  21  56 S8        30.06F
OLATHE EXE     MOCLDY    35  21  56 S8        30.06F
SALINA         CLOUDY    45  26  47 S16G24    29.94F
TOPEKA BILLARD CLOUDY    42  22  44 S8        30.04S
TOPEKA FORBES  CLOUDY    41  22  46 S10       30.03S
$$



USA.gov is the U.S. government's official web portal to all federal, state and local government web resources and services.